AMSAT-OSCAR-10

operational
NORAD ID: 14129 Int'l Des: 1983-058 Owner: AMDL Country: D
MEOELLIPTICALHEO_ELLIPTICALSEMI_SYNC

AMSAT-OSCAR-10について

説明を読み込み中...

リアルタイム位置

3D地球を読み込み中...

次回通過

高度履歴

Altitude vs Time

uPlot chart will show altitude changes over time

軌道要素

1 14129U 83058B 26070.76119173 -.00000050 00000-0 00000-0 0 9997
2 14129 25.9232 235.9125 6045970 88.6671 335.5019 2.05871196293487
Epoch: Mar 11, 2026 • Age: 36 hours

現在のステータス

高度 35328.9 km
速度 1.96 km/s
衛星直下点 -25.81°S, 148.24°E
打ち上げ日 Jun 16, 1983
運用期間 42.7 years
タイプ other

技術仕様

分類 Payload
質量 155.00 kg
乾燥質量 90.00 kg
総質量 155.00 kg
長さ 1.30 m
直径 0.40 m
スパン 1.30 m
形状 Star
製造者 AMDL
バスタイプ AMSAT Phase 3
フェーズステータス In Orbit
所有者/国 AMDL/D

大規模コンステレーション

Loading constellations...